User: anonymous   Login
Location: Granada
(37.1830°N, 3.6000°W)
Time: 10:07:44
(UTC+02:00)
Language:

Iridium 70 - Orbit

View from above orbital plane
View from above orbital plane
View from above satellite
View from above satellite

Ground track
Ground track

The orbit data is extracted from the following two-line orbital elements,

1 25342U 98032A   16239.44405345  .00000017  00000-0 -11467-5 0  9991
2 25342  86.4009 347.4562 0002038  96.2470 308.1647 14.34215611956857
Epoch (UTC): 26 August 2016 10:39:26
Eccentricity: 0.0002038
inclination: 86.4009°
perigee height: 776 km
apogee height: 779 km
right ascension of ascending node: 347.4562°
argument of perigee: 96.2470°
revolutions per day: 14.34215611
mean anomaly at epoch: 308.1647°
orbit number at epoch: 95685

The dashed part of the orbit path shows where the satellite is in the earth's shadow,  

DLR